Regional Weather Roundup
Issued by NWS Northern Indiana

Home | Current Version | Previous Version | Graphics & Text | Print | Product List | Glossary On
Versions: 1 2 3 4 5 6 7 8 9 10 11 12 13 14 15 16 17 18 19 20 21 22 23 24 25 26 27 28 29 30 31 32 33 34 35 36 37 38 39 40 41 42 43 44 45 46 47 48 49 50
116
ASUS43 KIWX 220310
RWRIWX

KIWX WEATHER ROUNDUP
NATIONAL WEATHER SERVICE NORTHERN INDIANA
1100 PM EDT THU MAY 21 2015

NOTE: "FAIR" INDICATES FEW OR NO CLOUDS BELOW 12,000 FEET WITH NO
SIGNIFICANT WEATHER AND/OR OBSTRUCTIONS TO VISIBILITY.

* THESE STATIONS ARE NOT UNDER NWS QUALITY CONTROL. THEY ALSO MAY NOT
  REPORT WEATHER SUCH AS PRECIPITATION OR FOG.

INZ001>027-220400-
NORTHERN INDIANA

CITY           SKY/WX    TMP DP  RH WIND       PRES   REMARKS
GARY*          CLEAR     59  39  47 VRB5      30.04S
VALPARAISO     CLEAR     55  37  50 SW7       30.05R
MICHIGAN CITY* CLEAR     50  36  57 S5        30.04R
LAPORTE*       CLEAR     53  39  57 SW5       30.05R
KNOX*          CLEAR     52  34  50 SW6       30.05R
SOUTH BEND     CLEAR     54  35  48 SW7       30.05R
GOSHEN         CLEAR     49  37  63 SW8       30.04R
MONTICELLO*    CLEAR     52  39  61 SW6       30.07R
LOGANSPORT*    CLEAR     50  34  53 SW7       30.08S
ROCHESTER*     CLEAR     55  37  50 SW3       30.06S
WARSAW*        CLEAR     50  39  66 CALM      30.05S
ANGOLA*        CLEAR     46  36  66 CALM      30.03S
FORT WAYNE     CLEAR     49  41  74 SW8       30.06S
HUNTINGTON*    CLEAR     49  43  78 CALM      30.06S
PERU/GRISSOM   CLEAR     48  39  71 SW9       30.06R
MARION*        CLEAR     50  39  66 SW3       30.08S

$$
INZ028>050-220400-
CENTRAL INDIANA

CITY           SKY/WX    TMP DP  RH WIND       PRES   REMARKS
LAFAYETTE      CLEAR     52  40  63 SW3       30.09R
KOKOMO*        CLEAR     52  39  62 SW8       30.08S
MUNCIE*        CLEAR     53  38  56 SW6       30.09R
INDIANAPOLIS   CLEAR     52  41  66 SW9       30.11R

$$
MIZ043>046-050>051-056>058-064>065-071>073-077>080-220400-
SOUTHWEST LOWER MICHIGAN

CITY           SKY/WX    TMP DP  RH WIND       PRES   REMARKS
BATTLE CREEK   PTCLDY    53  38  56 SW7       30.00S
BENTON HARBOR  PTCLDY    53  35  50 S6        30.01R
COLDWATER*     FAIR      50  34  54 SW6       30.02R
HILLSDALE*     CLEAR     53  34  47 W6        30.02S
HOLLAND        MOCLDY    59  39  47 SW15      29.98S
GRAND RAPIDS   MOCLDY    57  39  51 SW5       29.99R
KALAMAZOO      CLEAR     53  37  54 SW9       30.01S
STURGIS*       CLEAR     52  36  54 CALM      30.03R
THREE RIVERS*  FAIR      51  36  55 SW6       30.02S

$$
OHZ001>008-015>018-024>025-220400-
NORTHWEST OHIO

CITY           SKY/WX    TMP DP  RH WIND       PRES   REMARKS
WAUSEON*       FAIR      52  36  54 W7        30.03R
DEFIANCE       CLEAR     50  36  58 CALM      30.04R
FINDLAY        CLEAR     51  38  60 SW7       30.04R
TOLEDO EXPRESS CLEAR     52  34  50 W7        30.02R
TOLEDO METCALF CLEAR     53  35  50 SW6       30.03R
LIMA           CLEAR     50  38  63 SW7       30.06R

$$
AND FOR LAKE MICHIGAN COASTAL AND OPEN LAKE BUOY OBSERVATIONS

STATION/POSITION TEMP    WIND        PRES    VSBY  WAVE
                 AIR SEA DIR/SP/G                  HT/PER
                 (F)     (DEG/KT/KT) (MB)    (MI)  (FT/S)
CALUMET HARBOR    62     210/  3/  4   N/A
MICHIGAN CITY     60     180/ 11/ 13   N/A
BURNS HARBOR      62     210/  9/ 11 1017.6S
SAINT JOSEPH      61     180/ 11/ 17 1016.9R
SOUTH LAKE BUOY   45 38  210/ 12/ 12 1015.8R         1/ 4
4 MI NW BRIDGMAN  56 53  230/ 10/ 10   N/A           1/ 2
MICHIGAN CITY     55 51  200/  6/  8   N/A           0

$$
&&



USA.gov is the U.S. government's official web portal to all federal, state and local government web resources and services.